Regional Weather Roundup
Issued by NWS

Home | Current Version | Previous Version | Graphics & Text | Print | Product List | Glossary On
Versions: 1 2 3 4 5 6 7 8 9 10 11 12 13 14 15 16 17 18 19 20 21 22 23 24 25 26 27 28 29 30 31 32 33 34 35 36 37 38 39 40 41 42 43 44 45 46 47 48 49 50
227
ASUS45 KBOI 200010
RWRID

IDAHO REGIONAL WEATHER ROUNDUP
NATIONAL WEATHER SERVICE BOISE ID
500 PM MST THU JAN 19 2017

NOTE: "FAIR" INDICATES FEW OR NO CLOUDS BELOW 12000 FEET
WITH NO SIGNIFICANT WEATHER AND/OR OBSTRUCTIONS TO VISIBILITY

IDZ012-014-200100-
SOUTHWEST IDAHO


CITY           SKY/WX    TMP DP  RH WIND       PRES   REMARKS
BOISE          PTCLDY    37  32  82 SE6       29.68R WCI  32
CALDWELL       MOCLDY    36  32  85 CALM      29.69R
MOUNTAIN HOME  MOCLDY    34  34 100 SE8       29.68R WCI  27
$$

IDZ016-017-200100-
SOUTHCENTRAL IDAHO


CITY           SKY/WX    TMP DP  RH WIND       PRES   REMARKS
BURLEY         CLOUDY    37  30  75 S9        29.66R WCI  30
JEROME         CLOUDY    37  32  82 CALM      29.67S
TWIN FALLS     CLOUDY    38  31  76 SW7       29.67R WCI  33
$$

IDZ019>023-200100-
SOUTHEAST IDAHO


CITY           SKY/WX    TMP DP  RH WIND       PRES   REMARKS
IDAHO FALLS    CLOUDY    32  31  96 SW8       29.68R FOG     WCI  25
POCATELLO      CLOUDY    35  30  82 S12       29.69R WCI  27
REXBURG        CLOUDY    30  29  96 CALM      29.67R FOG
$$

IDZ006-010-011-018-031-032-200100-
CENTRAL IDAHO MOUNTAINS


CITY           SKY/WX    TMP DP  RH WIND       PRES   REMARKS
MCCALL         CLOUDY    32  28  85 SE6       29.58R WCI  26
HAILEY         CLOUDY    28  28 100 CALM      29.66R
STANLEY          N/A     29  23  78 S7        29.58S WCI  22
SALMON         CLOUDY    28  27  93 CALM      29.61R
CHALLIS        CLOUDY    24  22  91 CALM      29.60R
$$

IDZ002-004-006-007-026-200100-
NORTHERN IDAHO


CITY           SKY/WX    TMP DP  RH WIND       PRES   REMARKS
LEWISTON       MOCLDY    40  34  79 E3        29.63R
LOWELL           N/A     34  32  92 N3        29.68S
COEUR D`ALENE  MOCLDY    38  33  82 S6        29.59R WCI  33
MULLAN PASS    SNOW      30  26  85 CALM      29.52R VSB 1/4
$$




USA.gov is the U.S. government's official web portal to all federal, state and local government web resources and services.